FW0788 Weather Reports


Display with metric or nautical units.
time (UTC)temp
F
wind
direction
speed
MPH
gust
MPH
rain 1hr
in
rain 24hr
in
rain mn
in
humidity
%
barometer
mb
20260831150103 48 109 0.0 0.0 0.00 0.00 0.00 92 1020.8
20260831144551 47 235 0.0 0.0 0.00 0.00 0.00 90 1020.9
20260831143049 48 235 0.0 0.0 0.00 0.00 0.00 90 1021.0
20260831141549 48 235 0.0 0.0 0.00 0.00 0.00 90 1021.1
20260831140041 49 234 0.0 0.0 0.00 0.00 0.00 89 1021.2
20260831134544 49 236 0.0 0.0 0.00 0.00 0.00 89 1021.5
20260831133039 50 184 0.0 0.0 0.00 0.00 0.00 89 1021.6
20260831131536 49 93 0.0 3.0 0.00 0.00 0.00 90 1021.8
20260831130035 49 40 0.0 0.0 0.00 0.00 0.00 88 1021.9
20260831124550 50 285 0.0 0.0 0.00 0.00 0.00 89 1022.1
20260831123033 51 194 0.0 5.0 0.00 0.00 0.00 87 1022.2
20260831121533 51 121 0.0 2.0 0.00 0.00 0.00 87 1022.2
20260831120031 52 150 0.0 4.0 0.00 0.00 0.00 87 1022.4
20260831114543 52 102 1.0 9.0 0.00 0.00 0.00 87 1022.5
20260831113030 51 125 0.0 8.0 0.00 0.00 0.00 88 1022.4
20260831111531 51 62 0.0 0.0 0.00 0.00 0.00 88 1022.4
20260831110031 51 173 0.0 0.0 0.00 0.00 0.00 87 1022.5
20260831104542 51 115 0.0 0.0 0.00 0.00 0.00 87 1022.5
20260831103029 52 193 0.0 0.0 0.00 0.00 0.00 87 1022.6
20260831101527 52 171 0.0 6.0 0.00 0.00 0.00 87 1022.6
20260831100035 51 152 0.0 7.0 0.00 0.00 0.00 87 1022.7
20260831094524 51 121 0.0 0.0 0.00 0.00 0.00 88 1022.9
20260831093032 51 119 0.0 0.0 0.00 0.00 0.00 88 1022.9
20260831091522 51 181 0.0 0.0 0.00 0.00 0.00 87 1022.9
20260831090022 51 215 0.0 0.0 0.00 0.00 0.00 85 1023.0
20260831084521 52 153 0.0 0.0 0.00 0.00 0.00 85 1023.0
20260831083036 53 139 0.0 0.0 0.00 0.00 0.00 84 1022.9
20260831081529 53 250 0.0 0.0 0.00 0.00 0.00 84 1023.0
20260831080025 53 236 0.0 0.0 0.00 0.00 0.00 83 1023.1
20260831074519 54 90 0.0 9.0 0.00 0.00 0.00 82 1023.0
20260831073017 55 134 0.0 9.0 0.00 0.00 0.00 81 1023.1
20260831071526 55 149 1.0 7.0 0.00 0.00 0.00 79 1023.2
20260831070026 56 145 2.0 10.0 0.00 0.00 0.00 78 1023.2
20260831064515 57 196 4.0 13.0 0.00 0.00 0.00 75 1023.3
20260831063012 59 188 4.0 8.0 0.00 0.00 0.00 74 1023.4
20260831061511 59 107 3.0 9.0 0.00 0.00 0.00 74 1023.6
20260831060011 59 103 3.0 10.0 0.00 0.00 0.00 74 1023.5
20260831054509 60 173 3.0 11.0 0.00 0.00 0.00 73 1023.6
20260831053009 60 211 2.0 11.0 0.00 0.00 0.00 73 1023.6
20260831051507 60 165 5.0 16.0 0.00 0.00 0.00 72 1023.6
20260831050007 60 229 5.0 13.0 0.00 0.00 0.00 71 1023.5
20260831044507 61 160 4.0 18.0 0.00 0.00 0.00 70 1023.8
20260831043007 61 147 6.0 13.0 0.00 0.00 0.00 70 1023.8
20260831041508 61 184 5.0 13.0 0.00 0.00 0.00 68 1023.9
20260831040001 62 146 4.0 17.0 0.00 0.00 0.00 68 1024.1
20260831034605 62 119 5.0 10.0 0.00 0.00 0.00 67 1024.3
20260831033058 62 133 3.0 10.0 0.00 0.00 0.00 66 1024.4
20260831031601 61 102 2.0 11.0 0.00 0.00 0.00 68 1024.7
20260831030058 61 166 4.0 11.0 0.00 0.00 0.00 66 1024.9
20260831024612 62 134 3.0 8.0 0.00 0.00 0.00 66 1025.0
20260831023054 61 217 2.0 10.0 0.00 0.00 0.00 67 1025.2
20260831021552 61 125 1.0 9.0 0.00 0.00 0.00 66 1025.3
20260831020106 62 169 3.0 7.0 0.00 0.00 0.00 63 1025.5
20260831014601 61 229 2.0 8.0 0.00 0.00 0.00 63 1025.7
20260831013048 61 123 3.0 9.0 0.00 0.00 0.00 64 1025.7
20260831011546 61 194 1.0 10.0 0.00 0.00 0.00 65 1025.9
20260831010048 60 151 2.0 8.0 0.00 0.00 0.00 67 1026.0
20260831004541 59 175 4.0 8.0 0.00 0.00 0.00 67 1026.1
20260831003039 59 184 4.0 10.0 0.00 0.00 0.00 66 1026.1
20260831001542 59 161 3.0 9.0 0.00 0.00 0.00 66 1026.2
20260831000033 58 130 3.0 9.0 0.00 0.00 0.00 67 1026.2
20260830234541 57 227 0.0 6.0 0.00 0.00 0.00 67 1026.2
20260830233025 57 167 1.0 5.0 0.00 0.00 0.00 67 1026.2
20260830231522 56 175 2.0 8.0 0.00 0.00 0.00 68 1026.3
20260830230031 55 250 1.0 5.0 0.00 0.00 0.00 72 1026.4
20260830224525 53 288 0.0 0.0 0.00 0.00 0.00 78 1026.4
20260830223017 49 115 0.0 0.0 0.00 0.00 0.00 83 1026.4
20260830221508 46 115 0.0 0.0 0.00 0.00 0.00 84 1026.4
20260830220020 45 83 0.0 0.0 0.00 0.00 0.00 87 1026.4
20260830214505 43 83 0.0 0.0 0.00 0.00 0.00 87 1026.3
20260830213111 40 128 0.0 0.0 0.00 0.00 0.00 92 1026.0
20260830211606 39 129 0.0 0.0 0.00 0.00 0.00 90 1026.0
20260830210054 39 129 0.0 0.0 0.00 0.00 0.00 89 1025.8
20260830204552 39 129 0.0 0.0 0.00 0.00 0.00 89 1025.8
20260830203049 39 129 0.0 0.0 0.00 0.00 0.00 88 1025.8
20260830201607 39 129 0.0 0.0 0.00 0.00 0.00 87 1025.8
20260830200045 40 129 0.0 0.0 0.00 0.00 0.00 87 1025.7
20260830194541 41 129 0.0 0.0 0.00 0.00 0.00 86 1025.6
20260830193042 41 72 0.0 0.0 0.00 0.00 0.00 84 1025.6
20260830191537 43 73 0.0 0.0 0.00 0.00 0.00 81 1025.4
20260830190037 48 75 0.0 6.0 0.00 0.00 0.00 74 1025.3
20260830184535 46 168 1.0 4.0 0.00 0.00 0.00 79 1025.2
20260830183029 44 165 0.0 0.0 0.00 0.00 0.00 82 1025.2
20260830181527 45 165 0.0 5.0 0.00 0.00 0.00 79 1025.2
20260830180025 47 111 1.0 4.0 0.00 0.00 0.00 76 1025.1
20260830174527 45 98 0.0 4.0 0.00 0.00 0.00 80 1025.1
20260830173027 47 51 0.0 4.0 0.00 0.00 0.00 78 1025.1
20260830171518 49 142 0.0 5.0 0.00 0.00 0.00 75 1025.0
20260830170016 48 144 0.0 0.0 0.00 0.00 0.00 75 1025.0
20260830164514 48 190 0.0 4.0 0.00 0.00 0.00 77 1025.0
20260830163012 49 132 0.0 8.0 0.00 0.00 0.00 77 1025.0
20260830161509 49 150 0.0 0.0 0.00 0.00 0.00 78 1025.4
20260830160007 50 207 0.0 0.0 0.00 0.00 0.00 77 1025.6
20260830154506 50 111 0.0 0.0 0.00 0.00 0.00 77 1025.7
20260830153018 50 123 0.0 6.0 0.00 0.00 0.00 78 1025.6
20260830151510 50 173 0.0 0.0 0.00 0.00 0.00 79 1025.6